COSMOS 2251 DEB, 34015

Orbit data source: Space-Track

COSMOS 2251 DEB, 34015 is space debris in LEO originally from a launch on Wed, 16 Jun 1993 UTC launched from the Plesetsk Missile And Space Complex (PKMTR). The debris from Iridium 33, an American commercial communications satellite, has been tracked extensively since its accidental collision with the defunct Russian satellite Cosmos 2251 in 2009. This event, occurring at high speed in low Earth orbit (LEO), generated thousands of pieces of space debris, significantly increasing the risk of further collisions. The Iridium 33 debris cloud has impacted space traffic management and orbital debris mitigation strategies, making it a subject of ongoing study in space situational awareness.

Loading next visibility...
Identifier
34015, 1993-036HA
Orbit
LEO
Country
Flag of CISCIS
Related business
Manufacturer
Unknown
Mission
Spacecraft
Bus & Motor
Unknown
Mass
Unknown
Launch date (UTC)
1993-06-16 (33 years ago)
Launch vehicle
Unknown
Launch site
Plesetsk Missile And Space Complex (PKMTR)
Object type
Payload
Rocket body
Debris
Shape & HBR
Unknown shape, 0.1 m
Radar Cross Section
Medium (>0.1 m² and <1 m²)

Expand to show TLE details & history
Last TLE update: 1 day ago

TLE from 1 day ago
0 COSMOS 2251 DEB
1 34015U 93036HA  26206.15906748  .00004594  00000-0  92401-3 0  9991
2 34015  74.0241  90.1467 0020771 132.9683  23.1074 14.61743486918086
Epoch: 2026-07-25T03:49Z
TLE epoch observation values (Epoch: 2026-07-25T03:49:03.430Z)
Latitude
22.88215°
Longitude
-96.89525°
Altitude
676.548 km
Speed
7.528 km/s
True Right ascension
17h 32m 58s
True Declination
22° 45' 28"
Sunlit
Object was in full shadow at epoch
Visualization orbit readout
Latitude
Unknown
Longitude
Unknown
Altitude
Unknown
Speed
Unknown
Apparent Right ascension
Unknown
Apparent Declination
Unknown
Sunlit
N/A
Visualization observer readout
Local Sidereal Time
00:19:14
Azimuth
Unknown
Elevation
Unknown
Doppler factor
Unknown
Orbital elements
Apogee altitude
699.818 km
Perigee altitude
670.476 km
Semi-major axis
7,063.284 km
Eccentricity
0.00208
Inclination
74.0241°
RAAN
90.1467°
Arg. of periapsis
132.9683°
True anomaly
23.20104°
Mean anomaly
23.1074°
Eccentric anomaly
23.1542°
Mean motion
3.65623 °/min
Orbital period
98.46 mins
BSTAR
0.00092401
Loading maneuver chart data...
Computing Atmospheric mass density...

Documentation

Showing up to 5 results
|